Weather History for Eindhoven, Netherlands

Change the Weather History Date:

Sunday, November 4, 2012

  Actual Average Record
Temperature  
Mean Temperature 42 °F -  
Max Temperature 48 °F 46 °F 66 °F (2011)
Min Temperature 37 °F 36 °F 35 °F (1997)
Degree Days  
Heating Degree Days 22    
Moisture  
Dew Point 41 °F    
Average Humidity 90    
Maximum Humidity 100    
Minimum Humidity 71    
Precipitation  
Precipitation 0.20 in - - ()
Sea Level Pressure  
Sea Level Pressure 29.45 in    
Wind  
Wind Speed 7 mph ()    
Max Wind Speed 15 mph    
Max Gust Speed -    
Visibility 6.1 miles    
Events Rain    
Averages and records for this station are not official NWS values.
T = Trace of Precipitation, MM = Missing Value Source: Averaged Metar Reports

Daily Weather History Graph

Daily Weather History Graph

Search for Another Location

Airport:

Trip Planner

Search our weather history database for the weather conditions in past years. The results will help you decide how hot, cold, wet, or windy it might be!

Date:

Astronomy

Nov. 04, 2012 Rise Set
Actual Time 7:37 AM CET 5:05 PM CET
Civil Twilight 7:02 AM CET 5:41 PM CET
Nautical Twilight 6:22 AM CET 6:20 PM CET
Astronomical Twilight 5:43 AM CET 6:59 PM CET
Moon 9:20 PM CET (11/4) 12:20 PM CET (11/4)
Length of Visible Light 10h 39m
Length of Day
9h 28m
Waning Gibbous, 74% of the Moon is Illuminated
Nov 4
Waning Gibbous
Nov 7
Last Quarter
Nov 13
New
Nov 20
First Quarter
Nov 28
Full

Hourly Weather History & Observations

Time (CET) Temp. Windchill Dew Point Humidity Pressure Visibility Wind Dir Wind Speed Gust Speed Precip Events Conditions
12:25 AM 41.0 °F 35.8 °F 39.2 °F 93% 29.59 in 6.2 mi SSW 8.1 mph - N/A   Partly Cloudy
12:55 AM 39.2 °F 35.0 °F 37.4 °F 93% 29.59 in 6.2 mi South 5.8 mph - N/A   Unknown
1:00 AM 39 °F - 37 °F 91% 29.61 in 19 mi SSW 6.7 mph - -   Partly Cloudy
1:25 AM 39.2 °F 34.2 °F 37.4 °F 93% 29.59 in 6.2 mi South 6.9 mph - N/A   Unknown
1:55 AM 39.2 °F 33.6 °F 37.4 °F 93% 29.59 in 6.2 mi South 8.1 mph - N/A   Partly Cloudy
2:25 AM 39.2 °F 34.2 °F 37.4 °F 93% 29.59 in 6.2 mi South 6.9 mph - N/A   Unknown
2:55 AM 37.4 °F 32.8 °F 37.4 °F 100% 29.59 in 6.2 mi South 5.8 mph - N/A   Mostly Cloudy
3:25 AM 37.4 °F 33.8 °F 37.4 °F 100% 29.59 in 6.2 mi South 4.6 mph - N/A   Overcast
3:55 AM 37.4 °F 32.8 °F 37.4 °F 100% 29.59 in 6.2 mi South 5.8 mph - N/A   Mostly Cloudy
4:00 AM 38 °F - 37 °F 97% 29.61 in 7 mi South 4.5 mph - -   Overcast
4:25 AM 37.4 °F 32.8 °F 37.4 °F 100% 29.59 in 6.2 mi South 5.8 mph - N/A   Overcast
4:55 AM 37.4 °F 33.8 °F 37.4 °F 100% 29.59 in 5.0 mi SSE 4.6 mph - N/A   Overcast
5:25 AM 37.4 °F 32.1 °F 37.4 °F 100% 29.59 in 6.2 mi SSE 6.9 mph - N/A   Overcast
5:55 AM 37.4 °F 32.8 °F 37.4 °F 100% 29.59 in 5.6 mi SSE 5.8 mph - N/A   Partly Cloudy
6:25 AM 37.4 °F 32.8 °F 37.4 °F 100% 29.59 in 4.3 mi SE 5.8 mph - N/A   Overcast
6:55 AM 39.2 °F 34.2 °F 39.2 °F 100% 29.56 in 5.6 mi SE 6.9 mph - N/A   Overcast
7:00 AM 39 °F - 39 °F 99% 29.59 in 6 mi SE 6.7 mph - -   Mist
7:25 AM 39.2 °F 33.6 °F 39.2 °F 100% 29.56 in 4.3 mi SE 8.1 mph - N/A   Overcast
7:55 AM 37.4 °F 32.1 °F 37.4 °F 100% 29.56 in 4.3 mi SE 6.9 mph - N/A   Overcast
8:25 AM 39.2 °F 35.9 °F 37.4 °F 93% 29.56 in 5.0 mi SSE 4.6 mph - N/A   Overcast
8:55 AM 39.2 °F 35.0 °F 39.2 °F 100% 29.56 in 5.6 mi South 5.8 mph - N/A   Overcast
9:25 AM 39.2 °F 34.2 °F 39.2 °F 100% 29.53 in 6.2 mi SSE 6.9 mph - N/A   Mostly Cloudy
9:55 AM 41.0 °F 38.0 °F 41.0 °F 100% 29.50 in 6.2 mi SE 4.6 mph - N/A   Mostly Cloudy
10:00 AM 41 °F - 40 °F 94% 29.53 in 7 mi SE 4.5 mph - -   Mostly Cloudy
10:25 AM 41.0 °F 37.1 °F 41.0 °F 100% 29.50 in 6.2 mi SE 5.8 mph - N/A   Scattered Clouds
10:55 AM 44.6 °F 40.7 °F 42.8 °F 93% 29.50 in 6.2 mi SE 6.9 mph - N/A   Overcast
11:25 AM 46.4 °F 41.9 °F 42.8 °F 87% 29.47 in 6.2 mi SE 9.2 mph - N/A   Overcast
11:55 AM 46.4 °F 42.9 °F 42.8 °F 87% 29.44 in 6.2 mi SE 6.9 mph - N/A   Scattered Clouds
12:25 PM 46.4 °F 42.9 °F 42.8 °F 87% 29.44 in 6.2 mi ESE 6.9 mph - N/A   Overcast
12:55 PM 46.4 °F 42.9 °F 42.8 °F 87% 29.42 in 6.2 mi ESE 6.9 mph - N/A   Mostly Cloudy
1:00 PM 47 °F - 43 °F 82% 29.42 in 16 mi ESE 6.7 mph - -   Partly Cloudy
1:25 PM 46.4 °F 42.9 °F 42.8 °F 87% 29.39 in 6.2 mi ESE 6.9 mph - N/A Rain Light Rain
1:39 PM 46.4 °F 43.5 °F 42.8 °F 87% 29.39 in 2.8 mi ESE 5.8 mph - N/A Rain Rain
1:43 PM 46.4 °F 43.5 °F 42.8 °F 87% 29.39 in 2.8 mi ESE 5.8 mph - N/A Rain Rain
1:48 PM 44.6 °F 42.2 °F 44.6 °F 100% 29.39 in 3.1 mi East 4.6 mph - N/A   Mostly Cloudy
1:55 PM 44.6 °F 43.1 °F 44.6 °F 100% 29.39 in 3.7 mi East 3.5 mph - N/A Rain Rain
2:25 PM 46.4 °F 42.4 °F 44.6 °F 93% 29.36 in 2.8 mi ESE 8.1 mph - N/A Rain Light Rain
2:55 PM 46.4 °F 41.5 °F 46.4 °F 100% 29.36 in 6.2 mi SE 10.4 mph - N/A Rain Light Rain
3:25 PM 48.2 °F - 46.4 °F 93% 29.36 in 6.2 mi SSE 8.1 mph - N/A   Light Drizzle
3:44 PM 48.2 °F - 46.4 °F 93% 29.33 in 6.2 mi South 8.1 mph - N/A Rain Light Rain
3:55 PM 48.2 °F - 46.4 °F 93% 29.33 in 3.7 mi South 10.4 mph - N/A Rain Rain Showers
4:00 PM 48 °F - 47 °F 95% 29.35 in 6 mi South 6.7 mph - - Rain Light Rain Showers
4:00 PM 48.2 °F - 46.4 °F 93% 29.33 in 6.2 mi South 8.1 mph - N/A Rain Rain Showers
4:02 PM 48.2 °F - 46.4 °F 93% 29.33 in 6.2 mi South 6.9 mph - N/A   Mostly Cloudy
4:07 PM 48.2 °F - 46.4 °F 93% 29.33 in 6.2 mi South 6.9 mph - N/A   Scattered Clouds
4:12 PM 48.2 °F - 46.4 °F 93% 29.33 in 6.2 mi South 8.1 mph - N/A   Partly Cloudy
4:25 PM 48.2 °F - 46.4 °F 93% 29.33 in 6.2 mi SSW 10.4 mph - N/A   Unknown
4:36 PM 48.2 °F - 44.6 °F 87% 29.33 in 6.2 mi SW 11.5 mph - N/A   Unknown
4:55 PM 46.4 °F 41.5 °F 44.6 °F 93% 29.36 in 6.2 mi SW 10.4 mph - N/A   Partly Cloudy
4:56 PM 46.4 °F 41.9 °F 44.6 °F 93% 29.36 in 6.2 mi SSW 9.2 mph - N/A   Scattered Clouds
5:25 PM 46.4 °F 41.5 °F 42.8 °F 87% 29.36 in 6.2 mi SSW 10.4 mph - N/A   Mostly Cloudy
5:31 PM 46.4 °F 41.1 °F 42.8 °F 87% 29.36 in 6.2 mi SSW 11.5 mph - N/A   Scattered Clouds
5:55 PM 46.4 °F 40.1 °F 41.0 °F 81% 29.36 in 6.2 mi SSW 15.0 mph - N/A   Unknown
6:17 PM 46.4 °F 40.7 °F 41.0 °F 81% 29.36 in 6.2 mi SSW 12.7 mph - N/A   Partly Cloudy
6:25 PM 46.4 °F 40.7 °F 41.0 °F 81% 29.36 in 6.2 mi SSW 12.7 mph - N/A   Mostly Cloudy
6:55 PM 46.4 °F 41.5 °F 41.0 °F 81% 29.36 in 6.2 mi South 10.4 mph - N/A   Overcast
7:00 PM 46 °F - 42 °F 79% 29.38 in 28 mi South 11.2 mph - -   Partly Cloudy
7:06 PM 46.4 °F 41.5 °F 41.0 °F 81% 29.36 in 6.2 mi South 10.4 mph - N/A   Overcast
7:25 PM 46.4 °F 40.1 °F 41.0 °F 81% 29.36 in 6.2 mi SSW 15.0 mph - N/A   Mostly Cloudy
7:55 PM 48.2 °F - 41.0 °F 76% 29.36 in 6.2 mi SSW 13.8 mph - N/A   Mostly Cloudy
8:10 PM 48.2 °F - 41.0 °F 76% 29.36 in 6.2 mi SSW 12.7 mph - N/A   Overcast
8:19 PM 48.2 °F - 41.0 °F 76% 29.36 in 6.2 mi SSW 12.7 mph - N/A   Overcast
8:25 PM 48.2 °F - 41.0 °F 76% 29.36 in 6.2 mi SSW 12.7 mph - N/A   Overcast
8:55 PM 48.2 °F - 41.0 °F 76% 29.36 in 6.2 mi SSW 15.0 mph - N/A   Overcast
9:25 PM 48.2 °F - 41.0 °F 76% 29.39 in 6.2 mi SSW 12.7 mph - N/A   Overcast
9:55 PM 48.2 °F - 41.0 °F 76% 29.39 in 6.2 mi SW 12.7 mph - N/A   Overcast
10:00 PM 48 °F - 42 °F 71% 29.41 in 25 mi SSW 13.4 mph - -   Overcast
10:25 PM 48.2 °F - 41.0 °F 76% 29.39 in 6.2 mi SW 12.7 mph - N/A   Overcast
10:55 PM 48.2 °F - 41.0 °F 76% 29.42 in 6.2 mi SW 13.8 mph - N/A   Overcast
11:25 PM 48.2 °F - 41.0 °F 76% 29.42 in 6.2 mi SW 13.8 mph - N/A   Mostly Cloudy
11:55 PM 46.4 °F 41.1 °F 41.0 °F 81% 29.42 in 6.2 mi SW 11.5 mph - N/A   Mostly Cloudy